Flag for China Weather past 2 weeks in Shenyang, Liaoning, China

Now
7 °F

Clear.


Feels Like: -6 °F
Forecast: 3 / 32 °F
Wind: 8 mph from Northeast

Location: Shenyang / Taoxian

Current Time: Feb 2, 2015 at 6:23:12 AM

Latest Report: Feb 2, 2015 at 6:00 AM


Visibility: 4 mi

Pressure: 30.54 "Hg

Humidity: 72%

Dew point: 0 °F

Location of ShenyangLocation

Historic Weather in Shenyang — Graph

°F

Shenyang temperature yesterday

Maximum temperature yesterday: 30 °F (at 2:00 PM)
Minimum temperature yesterday: 0 °F (at 6:30 AM)
Average temperature yesterday: 16 °F

Past Weeks' High & Low Weather Summary

 TemperatureHumidityPressure
High37 °F (Jan 23, 1:00 PM)100% (Jan 18, 7:00 PM)30.66 "Hg (Jan 18, 7:00 PM)
Low-8 °F (Jan 28, 6:00 AM)32% (Jan 26, 6:00 PM)29.89 "Hg (Jan 18, 1:30 PM)
Average15 °F66%30.36 "Hg
* Reported Jan 18 5:00 AM — Feb 2 5:00 AM, Shenyang, Weather by CustomWeather, © 2014

Note: Actual official high and low records may vary slightly from our data, if they occured in-between our weather recording intervals... More about our weather records

Advertising

Shenyang weather history for previous 24 hours

 ConditionsComfort  
Time TempWeatherWind HumidityBarometerVisibility
5:00 AM
Feb 2
7 °FClear.8 mph78%30.51 "Hg4 mi
4:30 AM7 °FClear.6 mph72%30.54 "Hg4 mi
4:00 AM9 °FClear.8 mph72%30.54 "Hg4 mi
3:30 AM9 °FClear.6 mph72%30.54 "Hg4 mi
3:00 AM7 °FClear.3 mph78%30.54 "Hg4 mi
2:30 AM7 °FClear.6 mph72%30.54 "Hg4 mi
2:00 AM9 °FClear.8 mph72%30.54 "Hg4 mi
1:30 AM9 °FClear.6 mph78%30.54 "Hg4 mi
1:00 AM10 °FClear.6 mph72%30.54 "Hg4 mi
12:30 AM10 °FClear.6 mph67%30.54 "Hg4 mi
12:00 AM12 °FClear.3 mph67%30.54 "Hg4 mi
11:30 PM
Feb 1
18 °FClear.1 mph62%30.54 "Hg4 mi
11:00 PM16 °FClear.1 mph62%30.54 "Hg4 mi
10:30 PM16 °FClear.3 mph62%30.54 "Hg4 mi
10:00 PM18 °FClear.3 mph62%30.54 "Hg4 mi
9:30 PM18 °FClear.1 mph62%30.54 "Hg4 mi
9:00 PM16 °FClear.3 mph67%30.54 "Hg4 mi
8:30 PM18 °FClear.1 mph62%30.54 "Hg4 mi
8:00 PM18 °FClear.No wind68%30.54 "Hg4 mi
7:30 PM19 °FClear.1 mph63%30.54 "Hg4 mi
7:00 PM19 °FClear.1 mph63%30.54 "Hg4 mi
6:30 PM19 °FClear.1 mph63%30.54 "Hg4 mi
6:00 PM23 °FClear.1 mph54%30.51 "Hg10 mi
5:30 PM25 °FClear.No wind54%30.51 "Hg10 mi
5:00 PM27 °FClear.1 mph50%30.51 "Hg10 mi
4:30 PM28 °FSunny.1 mph47%30.51 "Hg10 mi
4:00 PM30 °FSunny.1 mph43%30.51 "Hg10 mi
3:30 PM30 °FSunny.1 mph37%30.51 "Hg10 mi
3:00 PM30 °FSunny.1 mph40%30.51 "Hg10 mi
2:30 PM30 °FPassing clouds.3 mph40%30.54 "HgN/A
2:00 PM30 °FSunny.1 mph43%30.54 "Hg10 mi
1:30 PM28 °FClear.3 mph51%30.54 "Hg4 mi
1:00 PM27 °FClear.3 mph54%30.54 "Hg4 mi
12:30 PM27 °FClear.3 mph54%30.54 "Hg4 mi
12:00 PM25 °FClear.3 mph54%30.57 "Hg4 mi
11:00 AM25 °FClear.1 mph46%30.60 "Hg4 mi
10:30 AM23 °FClear.1 mph50%30.60 "Hg2 mi
10:00 AM19 °FClear.1 mph49%30.60 "Hg2 mi
9:30 AM14 °FClear.3 mph57%30.60 "Hg1 mi
9:00 AM10 °FClear.6 mph61%30.60 "Hg1 mi
8:30 AM7 °FClear.6 mph66%30.60 "Hg2 mi
8:00 AM5 °FClear.3 mph66%30.60 "Hg2 mi
7:30 AM1 °FClear.3 mph65%30.60 "Hg2 mi
7:00 AM1 °FClear.3 mph65%30.57 "Hg4 mi
6:30 AM0 °FClear.3 mph71%30.57 "Hg4 mi
6:00 AM1 °FClear.3 mph71%30.57 "Hg4 mi
Weather by CustomWeather, © 2014

See weather overviewHow to use our weather pages